timestamp,surface_pressure_avg,surface_temp_avg,battery_voltage,lat,long
2020-07-15 00:09:01+00:00,229.8781,17.2,12.81,47.84626,-54.09684
2020-07-15 00:19:01+00:00,225.9098,17.1,12.73,47.84626,-54.09684
2020-07-15 00:29:01+00:00,225.7281,16.92,12.73,47.84626,-54.09684
2020-07-15 00:39:01+00:00,228.7914,16.9,12.73,47.84626,-54.09684
2020-07-15 00:49:01+00:00,227.5764,16.9,12.73,47.84626,-54.09684
2020-07-15 00:59:01+00:00,227.1614,16.9,12.73,47.84626,-54.09684
2020-07-15 01:09:01+00:00,228.4015,16.83,12.73,47.84626,-54.09684
2020-07-15 01:19:01+00:00,227.3764,16.88,12.73,47.84626,-54.09684
2020-07-15 01:29:01+00:00,223.7364,16.89,12.73,47.84626,-54.09684
2020-07-15 01:39:01+00:00,222.1564,16.9,12.73,47.84626,-54.09684
2020-07-15 01:49:01+00:00,220.0381,17.07,12.73,47.84626,-54.09684
2020-07-15 01:59:01+00:00,219.3365,17.0,12.73,47.84626,-54.09684
2020-07-15 02:09:01+00:00,223.1814,16.98,12.73,47.84626,-54.09684
2020-07-15 02:19:01+00:00,227.5198,16.86,12.73,47.84626,-54.09684
2020-07-15 02:29:01+00:00,226.5598,16.85,12.73,47.84626,-54.09684
2020-07-15 02:39:01+00:00,227.6881,16.87,12.73,47.84626,-54.09684
2020-07-15 02:49:01+00:00,232.8798,16.89,12.73,47.84626,-54.09684
2020-07-15 02:59:01+00:00,235.3415,16.9,12.73,47.84626,-54.09684
2020-07-15 03:09:01+00:00,235.1915,16.89,12.73,47.84626,-54.09684
2020-07-15 03:19:01+00:00,237.5831,16.8,12.73,47.84626,-54.09684
2020-07-15 03:29:01+00:00,243.1047,16.79,12.73,47.84626,-54.09684
2020-07-15 03:39:01+00:00,242.5331,16.77,12.73,47.84626,-54.09684
2020-07-15 03:49:01+00:00,240.2698,16.22,12.73,47.84626,-54.09684
2020-07-15 03:59:01+00:00,244.0414,15.91,12.73,47.84626,-54.09684
2020-07-15 04:09:01+00:00,252.1781,15.8,12.73,47.84626,-54.09684
2020-07-15 04:19:01+00:00,258.5897,16.1,12.73,47.84626,-54.09684
2020-07-15 04:29:01+00:00,264.0664,16.0,12.73,47.84626,-54.09684
2020-07-15 04:39:01+00:00,270.2647,15.9,12.73,47.84626,-54.09684
2020-07-15 04:49:01+00:00,274.1813,16.2,12.73,47.84626,-54.09684
2020-07-15 04:59:01+00:00,276.7831,14.19,12.73,47.84626,-54.09684
2020-07-15 05:09:01+00:00,279.8014,14.0,12.73,47.84626,-54.09684
2020-07-15 05:19:01+00:00,284.1347,14.0,12.65,47.84626,-54.09684
2020-07-15 05:29:01+00:00,288.8547,14.07,12.65,47.84626,-54.09684
2020-07-15 05:39:01+00:00,289.1281,14.14,12.65,47.84626,-54.09684
2020-07-15 05:49:01+00:00,291.2079,14.17,12.65,47.84626,-54.09684
2020-07-15 05:59:01+00:00,294.3829,14.2,12.65,47.84626,-54.09684
2020-07-15 06:09:01+00:00,296.3214,14.26,12.65,47.84626,-54.09684
2020-07-15 06:19:01+00:00,297.8981,14.36,12.65,47.84626,-54.09684
2020-07-15 06:29:01+00:00,300.9164,14.37,12.65,47.84626,-54.09684
2020-07-15 06:39:01+00:00,301.283,14.55,12.65,47.84626,-54.09684
2020-07-15 06:49:01+00:00,299.1848,14.8,12.65,47.84626,-54.09684
2020-07-15 06:59:01+00:00,297.473,14.8,12.65,47.84626,-54.09684
2020-07-15 07:09:01+00:00,299.4597,14.8,12.65,47.84626,-54.09684
2020-07-15 07:19:01+00:00,299.0613,14.8,12.65,47.84626,-54.09684
2020-07-15 07:29:01+00:00,299.3264,14.89,12.65,47.84626,-54.09684
2020-07-15 07:39:01+00:00,300.9497,14.9,12.65,47.84626,-54.09684
2020-07-15 07:49:01+00:00,301.8747,14.9,12.65,47.84626,-54.09684
2020-07-15 07:59:01+00:00,299.0748,15.0,12.65,47.84626,-54.09684
2020-07-15 08:09:01+00:00,295.063,14.99,12.65,47.84626,-54.09684
2020-07-15 08:19:01+00:00,295.1363,14.9,12.65,47.84626,-54.09684
2020-07-15 08:29:01+00:00,293.4097,14.9,12.65,47.84626,-54.09684
2020-07-15 08:39:01+00:00,286.8181,14.89,12.65,47.84626,-54.09684
2020-07-15 08:49:01+00:00,281.2913,14.7,12.65,47.84626,-54.09684
2020-07-15 08:59:01+00:00,282.6146,14.68,12.65,47.84626,-54.09684
2020-07-15 09:09:01+00:00,279.8414,14.6,12.65,47.84626,-54.09684
2020-07-15 09:19:01+00:00,271.9364,14.62,12.57,47.84626,-54.09684
2020-07-15 09:29:01+00:00,265.8847,14.6,12.57,47.84626,-54.09684
2020-07-15 09:39:01+00:00,265.8864,14.59,12.57,47.84626,-54.09684
2020-07-15 09:49:01+00:00,263.6264,14.59,12.57,47.84626,-54.09684
2020-07-15 09:59:01+00:00,255.8847,14.6,12.57,47.84626,-54.09684
2020-07-15 10:09:01+00:00,248.9814,14.6,12.57,47.84626,-54.09684
2020-07-15 10:19:01+00:00,245.7248,14.6,12.57,47.84626,-54.09684
2020-07-15 10:29:01+00:00,242.3848,14.67,12.57,47.84626,-54.09684
2020-07-15 10:39:01+00:00,236.8664,14.7,12.57,47.84626,-54.09684
2020-07-15 10:49:01+00:00,232.6647,14.6,12.57,47.84626,-54.09684
2020-07-15 10:59:01+00:00,231.4814,14.58,12.57,47.84626,-54.09684
2020-07-15 11:09:01+00:00,229.9414,14.87,12.57,47.84626,-54.09684
2020-07-15 11:19:01+00:00,226.4081,15.23,12.65,47.84626,-54.09684
2020-07-15 11:29:01+00:00,221.1115,15.46,12.65,47.84626,-54.09684
2020-07-15 11:39:01+00:00,220.8981,15.5,12.65,47.84626,-54.09684
2020-07-15 11:49:01+00:00,223.4247,15.6,12.65,47.84626,-54.09684
2020-07-15 11:59:01+00:00,220.1815,15.59,12.65,47.84626,-54.09684
2020-07-15 12:09:01+00:00,214.5764,15.5,12.65,47.84626,-54.09684
2020-07-15 12:19:01+00:00,215.1331,15.2,12.73,47.84626,-54.09684
2020-07-15 12:29:01+00:00,215.6898,15.2,12.73,47.84626,-54.09684
2020-07-15 12:39:01+00:00,213.9598,15.1,12.73,47.84626,-54.09684
2020-07-15 12:49:01+00:00,212.5414,15.0,12.73,47.84626,-54.09684
2020-07-15 12:59:01+00:00,211.5831,14.98,12.73,47.84626,-54.09684
2020-07-15 13:09:01+00:00,213.4314,15.0,12.73,47.84626,-54.09684
2020-07-15 13:19:01+00:00,216.5748,15.05,12.89,47.84626,-54.09684
2020-07-15 13:29:01+00:00,216.3731,15.0,12.89,47.84626,-54.09684
2020-07-15 13:39:01+00:00,218.3764,14.7,12.89,47.84626,-54.09684
2020-07-15 13:49:01+00:00,222.9015,14.86,12.89,47.84626,-54.09684
2020-07-15 13:59:01+00:00,222.4115,15.17,12.89,47.84626,-54.09684
2020-07-15 14:09:01+00:00,222.6731,15.2,12.89,47.84626,-54.09684
2020-07-15 14:19:01+00:00,224.5447,14.83,13.05,47.84626,-54.09684
2020-07-15 14:29:01+00:00,225.8048,14.5,13.05,47.84626,-54.09684
2020-07-15 14:39:01+00:00,225.4364,14.5,13.05,47.84626,-54.09684
2020-07-15 14:49:01+00:00,226.2914,14.4,13.05,47.84626,-54.09684
2020-07-15 14:59:01+00:00,229.4298,14.4,13.05,47.84626,-54.09684
2020-07-15 15:09:01+00:00,232.9131,14.4,13.05,47.84626,-54.09684
2020-07-15 15:19:01+00:00,234.1797,14.37,13.05,47.84626,-54.09684
2020-07-15 15:29:01+00:00,234.2531,14.3,13.05,47.84626,-54.09684
2020-07-15 15:39:01+00:00,238.2181,14.3,13.05,47.84626,-54.09684
2020-07-15 15:49:01+00:00,242.6131,14.41,13.05,47.84626,-54.09684
2020-07-15 15:59:01+00:00,245.4114,14.81,13.05,47.84626,-54.09684
2020-07-15 16:09:01+00:00,246.3131,14.6,13.05,47.84626,-54.09684
2020-07-15 16:19:01+00:00,246.5614,14.4,13.21,47.84626,-54.09684
2020-07-15 16:29:01+00:00,248.9964,14.5,13.21,47.84626,-54.09684
2020-07-15 16:39:01+00:00,255.2281,14.6,13.21,47.84626,-54.09684
2020-07-15 16:49:01+00:00,261.0448,14.6,13.21,47.84626,-54.09684
2020-07-15 16:59:01+00:00,261.9713,14.6,13.21,47.84626,-54.09684
2020-07-15 17:09:01+00:00,266.1398,14.6,13.21,47.84626,-54.09684
2020-07-15 17:19:01+00:00,273.793,14.77,13.21,47.84626,-54.09684
2020-07-15 17:29:01+00:00,277.8181,14.6,13.21,47.84626,-54.09684
2020-07-15 17:39:01+00:00,279.0947,14.4,13.21,47.84626,-54.09684
2020-07-15 17:49:01+00:00,284.0413,14.5,13.21,47.84626,-54.09684
2020-07-15 17:59:01+00:00,289.6264,14.5,13.21,47.84626,-54.09684
2020-07-15 18:09:01+00:00,294.4313,14.5,13.21,47.84626,-54.09684
2020-07-15 18:19:01+00:00,297.978,14.5,13.29,47.84626,-54.09684
2020-07-15 18:29:01+00:00,298.1114,14.5,13.29,47.84626,-54.09684
2020-07-15 18:39:01+00:00,296.7931,14.5,13.29,47.84626,-54.09684
2020-07-15 18:49:01+00:00,299.7197,14.32,13.29,47.84626,-54.09684
2020-07-15 18:59:01+00:00,305.3963,14.3,13.29,47.84626,-54.09684
2020-07-15 19:09:01+00:00,308.4947,14.3,13.29,47.84626,-54.09684
2020-07-15 19:19:01+00:00,307.2096,14.3,13.29,47.84626,-54.09684
2020-07-15 19:29:01+00:00,305.4697,14.37,13.29,47.84626,-54.09684
2020-07-15 19:39:01+00:00,308.403,14.4,13.29,47.84626,-54.09684
2020-07-15 19:49:01+00:00,310.0513,14.2,13.29,47.84626,-54.09684
2020-07-15 19:59:01+00:00,309.6097,14.2,13.29,47.84626,-54.09684
2020-07-15 20:09:01+00:00,309.4296,14.1,13.29,47.84626,-54.09684
2020-07-15 20:19:01+00:00,313.2464,14.06,13.21,47.84626,-54.09684
2020-07-15 20:29:01+00:00,313.9313,14.08,13.21,47.84626,-54.09684
2020-07-15 20:39:01+00:00,311.6297,14.04,13.21,47.84626,-54.09684
2020-07-15 20:49:01+00:00,307.7947,14.0,13.21,47.84626,-54.09684
2020-07-15 20:59:01+00:00,304.9213,14.0,13.21,47.84626,-54.09684
2020-07-15 21:09:01+00:00,303.4497,14.08,13.21,47.84626,-54.09684
2020-07-15 21:19:01+00:00,302.4647,14.1,12.97,47.84626,-54.09684
2020-07-15 21:29:01+00:00,296.168,14.19,12.97,47.84626,-54.09684
2020-07-15 21:39:01+00:00,290.4014,14.2,12.97,47.84626,-54.09684
2020-07-15 21:49:01+00:00,289.993,14.2,12.97,47.84626,-54.09684
2020-07-15 21:59:01+00:00,285.7464,14.29,12.97,47.84626,-54.09684
2020-07-15 22:09:01+00:00,275.4564,14.1,12.97,47.84626,-54.09684
2020-07-15 22:19:01+00:00,270.1414,14.4,12.81,47.84626,-54.09684
2020-07-15 22:29:01+00:00,267.4114,14.4,12.81,47.84626,-54.09684
2020-07-15 22:39:01+00:00,260.1931,14.33,12.81,47.84626,-54.09684
2020-07-15 22:49:01+00:00,255.6714,14.3,12.81,47.84626,-54.09684
2020-07-15 22:59:01+00:00,253.8648,14.3,12.81,47.84626,-54.09684
2020-07-15 23:09:01+00:00,247.933,14.3,12.81,47.84626,-54.09684
2020-07-15 23:19:01+00:00,239.8364,14.3,12.73,47.84626,-54.09684
2020-07-15 23:29:01+00:00,239.5881,14.3,12.73,47.84626,-54.09684
2020-07-15 23:39:01+00:00,239.8865,14.3,12.73,47.84626,-54.09684
2020-07-15 23:49:01+00:00,234.3964,14.3,12.73,47.84626,-54.09684
2020-07-15 23:59:01+00:00,228.6898,14.23,12.73,47.84626,-54.09684
